GW4477 Weather Reports


time (UTC)temp
C
wind
direction
speed
KPH
gust
KPH
rain 1hr
cm
rain 24hr
cm
rain mn
cm
humidity
%
barometer
mb
20260901183007 33 172 11.3 22.5 0.00 0.00 0.00 32 1017.8
20260901181521 34 198 4.8 16.1 0.00 0.00 0.00 35 1018.0
20260901180019 33 182 9.7 19.3 0.00 0.00 0.00 36 1018.2
20260901174545 33 211 6.4 16.1 0.00 0.00 0.00 39 1018.4
20260901173004 32 200 4.8 16.1 0.00 0.00 0.00 41 1018.5
20260901171510 32 229 3.2 12.9 0.00 0.00 0.00 41 1018.7
20260901170012 32 233 6.4 16.1 0.00 0.00 0.00 43 1018.8
20260901164525 31 244 6.4 12.9 0.00 0.00 0.00 43 1018.9
20260901163027 31 262 4.8 16.1 0.00 0.00 0.00 43 1019.0
20260901161510 30 252 8.0 14.5 0.00 0.00 0.00 44 1018.9
20260901160021 30 286 4.8 17.7 0.00 0.00 0.00 46 1018.9
20260901154518 29 256 4.8 17.7 0.00 0.00 0.00 49 1018.7
20260901153026 28 173 8.0 16.1 0.00 0.00 0.00 50 1018.7
20260901151507 27 360 8.0 16.1 0.00 0.00 0.00 54 1018.7
20260901150015 26 173 4.8 12.9 0.00 0.00 0.00 60 1018.7
20260901144517 25 219 8.0 17.7 0.00 0.00 0.00 62 1018.5
20260901143027 24 225 8.0 16.1 0.00 0.00 0.00 65 1018.7
20260901141528 23 223 8.0 17.7 0.00 0.00 0.00 67 1018.8
20260901140027 22 220 6.4 14.5 0.00 0.00 0.00 71 1018.6
20260901134522 21 214 4.8 12.9 0.00 0.00 0.00 74 1018.7
20260901133024 21 218 1.6 11.3 0.00 0.00 0.00 79 1018.7
20260901131528 19 171 1.6 4.8 0.00 0.00 0.00 84 1018.5
20260901130031 18 207 3.2 4.8 0.00 0.00 0.00 85 1018.5
20260901124522 18 160 0.0 3.2 0.00 0.00 0.00 85 1018.5
20260901123036 18 139 1.6 4.8 0.00 0.00 0.00 85 1018.4
20260901121528 17 148 0.0 3.2 0.00 0.00 0.00 85 1018.1
20260901120042 18 176 1.6 3.2 0.00 0.00 0.00 86 1018.0
20260901114538 18 209 0.0 3.2 0.00 0.00 0.00 86 1018.1
20260901113018 18 205 0.0 3.2 0.00 0.00 0.00 85 1018.1
20260901111529 18 181 0.0 3.2 0.00 0.00 0.00 86 1018.1
20260901110030 18 163 0.0 0.0 0.00 0.00 0.00 85 1018.1
20260901104530 18 158 0.0 0.0 0.00 0.00 0.00 85 1018.1
20260901103032 18 342 0.0 0.0 0.00 0.00 0.00 85 1018.3
20260901101504 18 342 0.0 0.0 0.00 0.00 0.00 84 1018.4
20260901100003 18 342 0.0 3.2 0.00 0.00 0.00 84 1018.5
20260901094510 18 342 0.0 0.0 0.00 0.00 0.00 83 1018.5
20260901093003 19 342 0.0 3.2 0.00 0.00 0.00 81 1018.6
20260901091503 20 182 1.6 4.8 0.00 0.00 0.00 79 1018.4
20260901090008 21 321 0.0 3.2 0.00 0.00 0.00 75 1018.5
20260901084508 21 251 0.0 6.4 0.00 0.00 0.00 74 1018.5
20260901083003 21 214 0.0 1.6 0.00 0.00 0.00 78 1018.2
20260901081503 21 271 0.0 1.6 0.00 0.00 0.00 78 1018.2
20260901080005 20 214 1.6 6.4 0.00 0.00 0.00 81 1018.2
20260901074504 20 259 0.0 3.2 0.00 0.00 0.00 81 1018.2
20260901073024 20 250 0.0 3.2 0.00 0.00 0.00 82 1018.2
20260901071504 20 257 0.0 3.2 0.00 0.00 0.00 83 1018.1
20260901070006 20 246 0.0 3.2 0.00 0.00 0.00 82 1018.0
20260901064510 21 213 0.0 3.2 0.00 0.00 0.00 82 1017.8
20260901063007 21 195 0.0 3.2 0.00 0.00 0.00 80 1017.6
20260901061505 21 257 0.0 3.2 0.00 0.00 0.00 78 1017.5
20260901060006 21 238 0.0 3.2 0.00 0.00 0.00 75 1017.4
20260901054504 22 250 0.0 3.2 0.00 0.00 0.00 72 1017.4
20260901053006 23 205 0.0 3.2 0.00 0.00 0.00 69 1017.4
20260901051507 24 194 1.6 3.2 0.00 0.00 0.00 65 1017.4
20260901050007 25 194 0.0 3.2 0.00 0.00 0.00 62 1017.4
20260901044509 26 170 0.0 3.2 0.00 0.00 0.00 57 1017.4
20260901043009 26 221 0.0 3.2 0.00 0.00 0.00 53 1017.4
20260901041510 27 211 1.6 8.0 0.00 0.00 0.00 52 1017.4
20260901040009 27 195 0.0 6.4 0.00 0.00 0.00 51 1017.4
20260901034511 27 259 0.0 4.8 0.00 0.00 0.00 51 1017.7
20260901033016 26 256 0.0 3.2 0.00 0.00 0.00 54 1017.2
20260901031509 25 239 0.0 0.0 0.00 0.00 0.00 64 1017.1
20260901030012 25 239 0.0 3.2 0.00 0.00 0.00 67 1016.9
20260901024511 26 211 0.0 1.6 0.00 0.00 0.00 66 1016.7
20260901023013 26 211 0.0 0.0 0.00 0.00 0.00 62 1016.0
20260901021506 27 211 0.0 0.0 0.00 0.00 0.00 59 1015.6
20260901020011 27 211 0.0 0.0 0.00 0.00 0.00 58 1015.1
20260901014515 27 211 0.0 0.0 0.00 0.00 0.00 59 1014.7
20260901013004 28 211 0.0 0.0 0.00 0.00 0.00 56 1015.0
20260901011506 30 211 0.0 0.0 0.00 0.00 0.00 54 1015.0
20260901010009 31 211 0.0 0.0 0.00 0.00 0.00 50 1014.9
20260901004517 32 211 0.0 0.0 0.00 0.00 0.00 47 1014.8
20260901003016 33 211 0.0 1.6 0.00 0.00 0.00 44 1014.8
20260901001504 34 188 0.0 4.8 0.00 0.00 0.00 39 1014.6
20260901000008 34 180 3.2 6.4 0.00 0.00 0.00 37 1014.7
20260831234516 35 210 1.6 8.0 0.00 0.00 0.00 36 1014.8
20260831233017 35 212 4.8 12.9 0.00 0.00 0.00 35 1014.7
20260831231521 35 188 3.2 11.3 0.00 0.00 0.00 35 1014.8
20260831230009 35 198 3.2 9.7 0.00 0.00 0.00 36 1015.0
20260831224512 35 202 0.0 9.7 0.00 0.00 0.00 37 1015.1
20260831223019 35 219 3.2 11.3 0.00 0.00 0.00 38 1015.1
20260831221527 35 234 0.0 14.5 0.00 0.00 0.00 38 1015.1
20260831220027 35 135 4.8 6.4 0.00 0.00 0.00 38 1015.3
20260831214512 35 192 4.8 9.7 0.00 0.00 0.00 38 1015.5
20260831213016 35 209 4.8 8.0 0.00 0.00 0.00 39 1015.6
20260831211525 35 197 4.8 8.0 0.00 0.00 0.00 39 1015.9
20260831210028 35 251 1.6 6.4 0.00 0.00 0.00 43 1016.1
20260831204508 34 324 0.0 11.3 0.00 0.00 0.00 45 1016.4
20260831203018 33 202 0.0 6.4 0.00 0.00 0.00 44 1016.8
20260831201525 33 267 3.2 11.3 0.00 0.00 0.00 46 1017.1
20260831200032 33 179 1.6 8.0 0.00 0.00 0.00 45 1017.2
20260831194558 33 229 4.8 12.9 0.00 0.00 0.00 45 1017.4
20260831193010 33 207 0.0 6.4 0.00 0.00 0.00 50 1017.4
20260831191520 32 213 1.6 9.7 0.00 0.00 0.00 47 1017.6
20260831190025 32 202 1.6 6.4 0.00 0.00 0.00 49 1017.6
20260831184529 32 152 3.2 6.4 0.00 0.00 0.00 50 1017.9